RH
100 100 99 99 99 98 98 98 98 97 97 96 95 94 94 93 92 90 88 84 79 73 66 58 48 38 27 18 10 6 5 6 6 7 7 7 7 7 8 8 9 10 10 11 12 14 15 17 19 21 23 24 25 26 26 27 27 28 28 29 30 33 37 38 40 42 46 52 54 55 54 60 64 65 63 58 60 64 68 82 89 90 90 90 92 94
100 100 99 99 98 98 98 98 97 96 96 95 94 93 92 90 86 81 74 67 58 49 40 32 24 17 11 8 8 8 9 10 10 10 10 10 10 10 11 13 14 16 17 18 19 20 22 24 24 26 27 27 28 28 28 29 30 30 31 32 34 36 38 40 41 43 45 46 46 46 45 44 44 45 48 46 46 50 58 79 88 92 96 92 90 90
100 99 99 99 98 98 98 97 96 96 95 94 92 90 87 80 70 60 49 40 32 24 18 15 12 11 10 11 12 12 12 12 12 11 11 12 12 14 16 18 20 22 24 25 26 28 29 30 30 31 31 31 31 32 32 34 35 36 36 37 39 41 42 42 43 44 46 45 44 43 42 40 40 40 43 42 43 48 61 72 74 76 82 76 75 77
99 99 99 98 98 98 97 96 96 94 93 90 86 79 70 57 44 34 26 22 18 15 14 16 16 15 14 14 14 14 14 14 13 12 12 14 16 18 21 24 26 28 30 32 34 36 36 37 37 37 36 36 37 37 38 40 40 41 41 42 43 44 45 46 46 47 46 45 44 42 42 42 42 42 40 40 40 42 45 48 50 51 53 51 58 63
99 99 99 98 98 97 95 94 92 90 86 78 68 56 44 32 24 20 18 17 18 18 19 19 18 18 17 17 16 16 15 14 13 13 14 17 20 24 26 29 31 34 36 39 41 42 43 44 44 43 43 43 43 43 43 44 45 45 46 46 46 46 46 47 47 47 46 45 44 43 42 42 42 42 42 40 39 38 38 38 38 38 38 38 41 44
99 99 98 97 96 95 92 90 86 78 70 58 45 34 24 21 20 20 22 22 23 23 22 22 22 21 20 19 17 16 14 14 14 16 18 22 25 28 31 34 37 40 42 44 46 47 48 48 48 48 48 48 48 48 48 48 48 48 49 50 50 50 50 49 48 47 46 45 44 43 42 42 42 40 40 38 36 35 34 34 34 34 34 36 39 42
99 98 97 95 93 90 87 79 68 57 48 39 31 24 22 24 26 27 28 28 27 27 27 27 26 24 21 19 17 16 15 15 16 18 21 24 27 30 33 37 40 43 46 48 49 49 49 49 49 49 50 50 51 52 53 53 53 54 55 55 55 55 53 51 50 48 46 45 44 42 41 40 39 38 36 35 34 34 34 34 34 34 35 38 40 44
98 96 94 92 87 81 74 62 49 38 33 31 28 27 29 31 33 34 35 34 34 34 33 30 28 24 22 20 19 18 18 18 18 20 23 26 28 32 36 40 43 46 48 49 50 49 48 48 49 50 51 53 55 56 58 60 61 62 64 63 61 58 55 52 49 48 46 44 43 42 40 40 38 38 37 36 36 36 36 36 36 36 37 40 43 46
94 90 86 80 74 66 56 48 41 36 32 32 32 33 35 38 40 40 40 40 41 40 37 33 28 25 23 22 21 21 20 20 21 23 26 29 32 36 40 42 46 48 49 48 48 48 47 48 50 51 53 54 56 58 60 62 64 64 64 62 60 56 52 49 47 46 44 44 43 42 41 40 40 39 38 38 38 38 38 38 38 39 40 44 46 48
79 72 65 60 54 49 44 40 39 39 38 38 39 40 42 43 44 43 42 42 43 43 40 35 30 26 24 22 22 21 21 21 23 26 30 34 38 40 44 48 50 50 50 49 48 47 47 48 50 51 52 52 53 54 56 56 57 56 55 53 52 50 48 47 46 46 46 45 44 43 42 42 42 41 40 40 41 42 42 42 42 42 44 47 50 52
58 53 47 44 42 40 39 38 39 42 45 48 50 51 50 50 48 46 44 44 44 43 42 37 32 28 25 23 21 20 20 22 26 30 34 38 40 44 48 52 54 53 52 50 48 47 47 48 49 49 49 49 50 50 50 50 50 49 48 48 48 48 48 48 48 48 48 47 46 46 45 44 44 44 44 45 46 47 48 48 49 49 50 53 55 58
46 45 42 38 36 36 38 42 46 50 54 56 58 58 57 58 56 52 46 46 44 42 42 38 34 30 26 24 23 22 23 26 30 34 36 39 42 46 52 55 55 53 50 48 47 46 46 48 48 48 48 48 48 48 48 47 47 47 47 48 49 49 50 50 50 50 50 50 49 49 48 48 48 48 49 50 52 54 54 55 56 56 56 59 60 61
44 42 39 37 38 40 44 50 55 58 62 64 64 64 64 64 62 58 52 49 46 44 42 38 35 31 27 26 26 26 28 33 36 38 39 41 45 50 57 58 56 52 49 48 46 46 46 47 47 47 46 46 46 46 46 46 47 47 48 49 50 51 52 53 54 54 54 54 54 54 53 53 53 54 54 55 56 57 58 58 60 60 60 62 63 64
40 39 38 40 44 50 54 58 60 63 67 70 71 70 68 65 63 60 57 54 51 48 43 40 36 32 28 26 27 30 37 42 43 43 43 45 49 54 60 58 54 50 47 47 46 45 45 46 46 45 44 44 44 44 45 46 46 48 49 50 52 54 55 57 58 58 60 60 60 60 58 58 58 59 59 59 60 60 60 60 60 60 60 61 63 65
40 42 46 51 55 58 61 62 66 69 71 74 74 71 67 65 64 62 58 55 52 49 46 42 38 33 28 24 28 36 47 52 53 52 49 48 49 53 57 56 52 47 44 45 44 43 44 45 44 43 42 42 43 44 45 46 47 48 50 52 54 57 58 60 62 63 64 66 66 65 64 64 64 64 64 64 63 63 62 62 61 61 61 61 62 63
49 52 55 58 60 60 61 64 67 71 73 74 73 70 66 66 64 62 58 56 54 51 49 44 39 32 24 23 30 43 57 62 62 58 52 47 46 48 53 53 49 44 42 42 42 42 43 43 43 42 42 42 43 44 45 46 47 49 51 54 57 60 62 65 67 69 70 71 71 71 71 71 71 70 70 69 68 67 66 64 63 62 62 60 60 61
60 60 58 58 57 57 58 64 68 71 73 74 73 71 68 65 64 62 59 58 56 54 52 46 40 34 26 26 34 47 63 68 66 59 50 44 42 44 49 51 49 44 42 42 42 43 43 42 42 42 42 42 43 44 46 47 48 51 54 57 60 63 66 70 72 73 74 74 74 74 74 74 73 72 72 71 70 69 67 66 65 64 63 62 62 61
67 65 61 58 58 58 60 66 70 73 74 73 72 70 68 67 65 64 61 58 56 54 50 44 40 37 39 41 43 50 66 73 70 62 50 42 40 40 46 49 49 46 43 42 42 43 44 43 43 43 43 43 44 45 46 48 50 53 56 59 62 66 69 72 74 74 74 74 74 73 72 71 70 70 69 69 69 69 68 68 67 66 65 64 64 63
71 68 65 65 66 68 70 73 74 76 75 73 71 68 67 66 66 64 61 58 54 50 45 41 41 45 52 56 57 60 69 77 75 66 55 44 40 40 46 50 50 48 45 43 43 44 45 44 44 44 44 44 45 46 48 49 52 54 57 60 62 65 67 69 71 72 72 72 72 70 68 67 67 66 66 68 69 69 69 69 69 69 68 68 68 67
69 70 72 74 76 76 78 79 80 79 76 72 69 66 64 63 62 62 60 56 50 45 40 45 53 62 68 74 73 71 71 76 74 67 58 48 43 42 48 52 52 50 45 43 44 45 46 44 44 43 44 45 46 47 48 50 52 54 56 58 60 62 64 66 67 68 68 68 67 66 64 64 63 64 64 68 70 71 71 71 71 71 71 72 72 72
69 71 73 74 74 73 76 78 77 76 74 71 68 65 62 60 58 55 51 47 44 42 44 57 69 78 86 86 79 71 67 72 72 70 62 54 48 46 50 55 55 52 46 43 44 45 46 45 44 44 44 46 46 48 49 51 52 54 55 56 58 60 61 62 63 64 64 64 63 63 62 62 62 63 64 66 69 71 72 73 73 73 74 74 75 76
67 67 67 67 67 68 70 71 72 73 73 68 64 62 59 56 53 48 43 42 41 42 47 62 74 84 88 82 70 60 60 64 68 70 69 62 53 48 52 57 57 54 48 44 44 46 47 46 45 45 46 46 47 48 50 51 52 53 54 55 56 57 58 60 61 62 63 64 64 64 64 64 65 66 66 68 70 73 74 75 76 76 76 76 76 76
54 56 58 59 60 61 62 63 64 65 64 60 58 56 54 50 48 45 43 42 41 40 42 55 65 71 69 62 56 52 54 61 67 72 76 70 60 52 54 59 60 57 50 47 46 47 47 46 46 46 46 47 48 49 50 51 52 52 53 53 54 55 56 58 60 61 63 64 65 66 67 68 68 69 69 70 71 72 73 74 76 77 77 76 77 77
46 46 48 50 52 54 54 55 55 54 52 52 50 48 44 42 41 40 40 40 40 42 46 52 54 51 47 47 48 50 54 62 69 75 79 74 66 58 57 62 62 60 52 49 49 50 49 47 46 46 47 47 48 49 51 52 52 52 52 52 52 53 54 56 58 60 63 64 65 65 66 66 66 66 66 66 67 68 69 72 74 77 78 79 80 80
52 51 50 49 48 47 46 45 44 43 43 43 42 42 40 38 36 34 34 36 40 46 54 57 55 51 46 48 50 54 57 64 70 76 80 76 70 63 59 63 65 63 56 52 51 52 51 48 46 46 47 48 49 50 52 52 52 52 52 52 52 52 54 56 58 60 60 61 62 62 62 62 62 63 63 64 65 66 68 70 74 76 78 81 82 83
60 58 55 50 44 40 36 35 34 36 42 48 50 50 47 42 40 38 39 40 44 50 58 62 60 57 54 57 58 58 60 64 69 74 78 78 74 67 59 62 64 64 60 55 53 53 53 50 47 46 47 48 50 51 52 52 52 52 51 52 52 53 54 56 57 58 60 60 61 61 62 62 62 62 63 64 64 66 68 70 74 76 80 82 84 85
60 56 50 42 36 30 26 24 24 27 34 41 47 52 54 52 54 56 53 49 50 56 66 69 66 61 58 60 60 60 63 66 68 71 76 78 74 68 60 61 64 66 64 59 56 54 55 52 50 48 48 50 51 52 52 52 52 51 51 52 52 53 54 56 57 58 58 60 60 60 61 61 62 62 62 63 64 65 66 69 73 77 81 85 88 88
48 42 36 30 26 23 20 19 19 19 21 25 32 40 49 53 58 61 57 54 57 63 69 70 68 66 64 64 63 64 66 67 68 71 76 77 74 70 62 65 68 71 71 66 60 56 56 54 52 51 51 51 52 52 52 52 52 52 52 52 53 54 54 55 56 57 58 59 60 60 60 60 61 61 61 62 62 64 66 69 74 80 85 88 90 88
34 28 23 20 18 17 16 16 17 18 21 23 27 33 40 46 52 55 52 55 61 66 69 68 68 69 70 69 69 69 68 66 69 73 78 78 76 72 68 72 75 77 78 75 68 61 56 55 54 54 54 53 53 53 53 53 53 53 52 52 52 53 54 55 56 57 58 58 60 60 60 60 60 60 60 61 62 63 65 71 76 82 87 88 88 87
30 24 19 16 15 15 15 16 18 22 26 32 37 42 47 49 52 55 56 60 64 68 69 68 69 71 74 76 78 77 71 67 70 76 81 82 80 77 76 78 79 80 82 83 80 73 63 56 55 56 57 56 56 55 55 55 54 54 53 52 52 52 54 55 56 58 58 59 60 60 60 60 60 60 60 60 62 63 65 70 76 81 85 87 87 87
26 20 18 16 16 17 18 19 22 27 33 40 46 51 56 58 60 61 63 66 67 69 71 71 71 73 77 84 87 84 75 68 70 76 81 84 82 80 78 80 78 78 80 86 88 86 78 66 58 56 58 58 56 55 55 55 55 54 54 54 53 53 54 56 58 58 59 60 60 60 60 60 60 60 60 61 62 64 66 69 74 81 86 88 89 90
19 17 16 16 17 19 21 24 29 34 40 46 52 56 60 62 64 66 66 68 68 70 72 74 74 76 80 83 85 82 74 67 68 73 79 83 82 80 78 80 79 78 79 86 89 90 89 80 68 58 57 57 56 54 54 55 56 56 57 56 56 55 56 58 59 60 60 60 60 60 60 59 59 60 60 62 63 65 68 70 76 82 88 90 91 91
17 17 17 17 18 22 26 32 38 44 48 53 56 60 62 64 64 65 66 66 67 69 72 74 76 78 79 79 78 75 69 66 68 73 79 83 84 82 80 81 80 80 80 84 87 88 89 86 77 67 60 57 56 56 55 56 57 58 60 60 58 57 57 59 60 61 62 61 60 60 58 58 58 59 60 62 64 66 69 71 76 82 88 90 92 92
18 18 18 20 22 26 32 40 46 51 54 57 58 60 61 62 62 62 63 64 66 68 70 74 77 78 79 78 76 71 66 66 70 76 81 84 86 84 82 82 82 82 83 84 86 86 87 87 85 80 71 62 58 56 57 57 58 60 61 62 61 60 59 60 61 62 62 62 60 59 58 58 58 59 60 63 65 68 70 73 77 82 88 90 92 92
20 19 20 22 26 31 38 44 50 55 58 60 60 61 62 63 63 64 65 66 68 69 70 72 74 76 78 78 76 72 66 67 71 76 80 83 85 85 84 82 82 83 85 86 87 87 88 87 88 87 83 72 63 58 57 60 61 62 62 62 62 62 61 62 62 63 62 62 60 59 58 58 60 60 62 64 67 70 73 77 81 85 89 90 92 92
19 19 20 24 29 35 41 47 53 58 61 63 64 65 67 68 69 69 70 71 71 72 72 73 74 74 76 76 74 72 68 68 70 74 78 80 82 84 84 82 81 82 86 87 88 88 89 87 87 87 87 81 73 65 60 60 62 63 62 62 62 62 62 62 63 64 64 62 60 60 60 60 62 63 64 67 70 72 75 78 81 83 84 87 90 92
20 20 21 26 32 38 43 48 54 58 63 65 66 68 70 71 72 72 72 73 74 74 75 75 74 74 74 73 72 71 69 68 70 72 74 77 80 82 83 81 80 82 85 87 88 89 90 89 88 86 86 84 80 75 68 65 64 63 62 62 62 62 61 62 63 65 65 64 62 61 62 63 65 66 67 69 71 73 74 76 77 79 80 83 86 89
20 21 23 28 34 40 46 51 56 60 64 66 67 68 69 70 70 71 72 72 74 74 74 74 73 72 71 71 70 69 68 68 68 69 72 74 78 80 82 81 80 81 83 86 87 89 90 90 90 89 88 84 82 80 77 74 70 67 64 63 62 62 62 64 65 66 66 66 64 64 64 66 67 68 68 70 72 73 74 74 76 78 80 83 86 88
20 22 26 32 39 45 50 54 58 62 64 64 65 66 66 67 67 68 68 69 69 69 68 68 67 67 66 66 66 66 65 64 65 66 69 73 76 79 82 82 82 82 82 85 87 89 90 90 90 90 90 87 84 82 80 79 77 75 72 68 65 63 64 67 68 69 68 68 67 66 66 67 68 69 70 71 73 75 76 77 78 80 84 87 88 88
22 26 31 38 45 51 56 58 60 62 63 63 64 64 65 65 65 65 64 64 63 63 62 63 64 64 64 64 64 64 64 64 65 67 70 73 76 79 82 83 83 83 83 85 87 88 90 90 90 90 90 90 89 88 86 83 81 81 82 81 76 69 65 68 68 69 69 69 70 70 69 69 70 71 73 74 76 78 80 81 82 84 87 90 91 90
26 32 39 46 52 57 60 61 62 62 63 64 64 64 65 64 63 62 60 60 60 62 64 66 66 66 66 66 66 66 66 67 68 70 73 75 78 80 83 84 84 85 85 86 87 88 90 90 90 90 90 90 91 90 89 86 85 85 87 88 84 76 70 70 70 70 71 72 72 72 72 72 73 74 76 78 79 80 81 83 85 87 89 90 91 92
34 40 48 53 57 60 61 62 63 64 65 65 66 66 65 64 62 61 61 62 63 65 68 70 70 69 68 66 66 68 69 70 72 73 75 76 78 81 82 84 84 86 87 88 88 89 90 90 90 90 90 90 90 90 90 87 86 86 89 88 86 82 77 72 71 72 76 74 73 73 74 75 76 77 79 80 80 80 80 83 86 89 91 91 91 92
43 50 55 58 60 60 61 62 63 63 64 64 64 63 63 62 63 64 66 67 68 70 72 73 73 72 70 69 68 68 70 72 74 75 76 77 79 80 82 84 85 87 89 89 89 89 90 90 90 90 91 90 90 90 91 89 87 86 87 88 89 90 90 78 72 72 76 75 74 74 74 76 78 80 82 83 83 82 82 85 88 90 90 90 90 92
51 55 59 60 62 62 62 63 63 64 64 63 62 62 63 64 66 69 71 72 72 73 74 75 76 75 74 73 71 70 72 73 74 76 77 78 80 81 82 84 86 89 90 90 90 90 91 90 90 90 91 90 90 90 92 90 89 88 87 88 88 88 88 84 80 76 76 74 74 74 76 78 81 84 86 86 87 87 88 90 90 90 89 90 91 92
57 60 62 64 64 64 64 64 64 65 64 64 63 64 66 69 71 74 74 74 74 75 76 78 79 80 79 76 75 74 73 74 75 76 78 79 80 82 83 85 87 89 90 90 90 90 90 91 90 90 91 90 90 90 92 91 90 89 87 86 87 88 88 85 84 82 80 78 76 76 77 81 86 89 90 89 88 89 90 91 92 92 90 90 91 92
61 63 64 65 65 64 64 64 65 66 65 65 66 68 71 74 75 76 77 77 77 77 79 80 82 84 83 80 78 77 76 75 75 76 77 78 80 82 83 85 87 89 90 90 90 90 90 91 91 91 91 91 91 90 90 90 90 90 87 86 87 88 87 85 83 82 81 81 80 79 80 84 89 91 91 90 90 90 90 92 92 92 92 92 92 92
64 65 65 66 65 65 65 66 66 66 66 68 70 74 76 77 78 79 80 80 80 80 81 82 83 84 85 82 80 79 79 77 76 76 76 78 80 82 84 86 87 88 89 90 90 90 90 91 90 90 90 90 90 90 90 90 90 90 89 88 88 88 88 84 82 82 82 84 84 84 84 88 90 92 91 91 92 92 92 92 92 92 92 92 92 92
68 68 68 67 66 66 66 67 68 69 71 73 74 77 79 81 82 82 82 83 83 83 82 83 84 85 84 82 82 82 82 81 79 78 77 79 82 83 86 87 88 89 89 90 90 90 90 90 90 90 90 90 90 90 89 88 89 90 90 90 90 90 89 87 85 84 86 87 88 88 90 91 92 92 92 92 92 92 92 92 92 92 92 92 92 92
71 70 69 68 69 69 70 70 71 73 76 77 78 79 81 83 84 85 85 85 84 84 84 86 87 87 86 84 84 84 84 84 83 82 80 82 84 86 87 88 88 89 90 90 90 90 90 90 90 90 90 90 90 90 90 88 89 90 90 90 91 91 90 89 88 88 89 90 90 90 91 92 92 92 92 92 92 92 92 92 92 91 91 91 92 92
72 71 71 71 72 72 73 74 75 77 79 80 81 81 82 83 84 85 86 86 85 85 85 86 88 89 90 87 86 86 86 86 86 84 84 86 87 88 89 89 89 90 90 90 90 90 90 90 90 90 90 90 91 91 90 90 90 90 91 91 91 91 91 90 90 90 90 91 92 92 92 92 92 92 90 92 92 92 92 92 92 90 90 91 91 91
73 72 72 73 74 74 74 76 78 80 82 84 84 84 83 82 82 84 85 86 86 86 86 86 88 89 90 89 88 87 88 88 88 87 87 88 89 90 90 90 90 90 90 90 90 90 91 91 90 90 90 88 89 90 90 90 90 90 91 90 90 91 91 90 90 91 92 92 92 92 92 92 92 92 91 91 92 92 92 92 92 90 90 90 92 92
Wind_Speed
24 24 24 24 23 22 20 19 17 16 16 17 17 18 19 19 19 20 20 21 21 21 21 21 21 21 21 21 21 21 21 21 21 21 21 21 21 21 21 21 21 21 21 21 21 20 20 20 20 20 20 20 20 20 20 20 20 20 21 21 21 22 22 22 22 22 22 22 22 22 22 22 22 22 22 23 22 22 21 21 21 21 22 22 22 23
22 22 22 21 20 18 17 16 16 16 16 17 17 18 18 18 18 19 19 19 20 19 19 20 20 19 19 19 19 19 19 19 19 19 19 19 19 19 19 19 19 19 19 19 19 19 19 19 19 19 20 20 20 20 20 20 20 21 21 21 22 22 22 22 22 23 23 23 23 23 23 23 23 23 23 23 23 22 21 21 21 21 22 22 22 23
20 20 19 18 17 15 15 15 16 16 16 16 16 17 17 17 18 18 18 18 18 18 18 18 18 18 17 17 17 17 17 17 18 18 18 17 17 17 17 17 17 17 18 18 18 18 18 19 19 19 19 19 20 20 20 20 20 21 21 22 22 22 22 23 23 23 23 23 23 23 23 23 23 23 23 23 23 23 22 22 22 22 22 22 23 23
19 18 17 16 15 15 15 15 15 15 15 15 15 16 16 17 17 17 17 17 17 17 17 17 17 16 16 16 16 16 16 17 17 17 16 16 16 16 15 15 15 16 16 16 16 17 17 17 18 18 18 19 19 19 20 20 21 21 21 22 22 22 23 23 23 23 24 24 24 24 24 24 24 24 24 24 24 24 24 24 23 24 24 24 24 24
17 15 15 14 14 14 14 14 14 14 14 14 15 16 16 17 17 17 17 17 17 17 16 16 16 15 15 15 15 16 16 17 17 16 16 16 15 15 15 15 15 14 15 15 15 15 15 16 16 17 17 17 18 18 19 20 20 21 21 22 22 23 23 23 24 24 24 24 24 25 25 25 25 25 25 25 26 26 26 26 26 26 26 26 27 27
14 13 13 13 13 13 13 13 13 13 14 14 15 16 16 16 16 16 17 17 16 16 15 15 15 15 15 16 16 17 17 17 17 16 16 16 15 15 14 14 14 14 14 14 14 14 14 14 14 15 15 16 17 17 18 19 20 20 21 22 22 23 23 24 24 25 25 25 25 25 25 25 25 26 26 26 26 26 26 26 27 27 27 27 28 28
12 12 12 12 12 12 12 12 12 13 13 13 14 15 15 16 16 16 16 16 15 15 15 15 15 15 16 17 17 17 17 17 17 17 16 16 15 14 14 13 13 13 13 13 12 12 12 12 13 13 14 15 15 16 17 18 19 19 20 21 22 22 23 23 24 24 24 24 24 25 25 25 25 25 25 25 25 25 25 26 26 26 26 27 27 28
10 10 11 10 10 11 12 12 12 12 13 13 14 14 14 15 15 15 15 14 14 14 14 15 16 17 17 18 18 18 18 18 18 17 17 16 15 14 13 12 12 12 12 11 11 11 12 12 13 13 14 15 15 16 17 17 18 19 19 20 21 21 22 22 22 22 22 23 23 23 23 24 24 24 24 24 24 25 25 25 25 26 26 27 27 27
9 10 10 10 10 10 10 11 12 12 13 13 13 13 13 14 14 13 13 12 12 13 14 16 17 18 19 19 18 18 18 18 18 17 16 15 14 13 12 11 11 11 11 11 11 12 12 13 14 14 15 15 16 16 16 17 17 18 18 19 19 19 19 20 20 20 20 21 21 22 23 23 23 24 24 24 25 25 25 26 26 27 27 28 28 28
10 9 9 9 10 10 10 10 11 12 12 12 12 13 13 12 12 12 12 12 12 14 15 17 18 19 19 19 18 18 18 18 17 16 15 14 13 12 11 11 11 11 12 12 12 13 13 14 15 15 15 16 16 16 16 16 16 17 17 17 17 17 18 18 18 19 20 20 21 22 23 23 24 24 25 25 26 26 27 28 28 28 29 29 29 29
9 8 8 8 9 10 10 10 11 11 11 11 12 12 12 11 11 11 12 13 14 16 17 18 19 20 20 19 19 18 18 18 17 15 13 12 11 10 10 10 11 12 12 13 13 14 15 15 15 15 15 15 15 14 14 15 15 15 15 16 16 16 17 17 18 19 20 21 21 22 23 24 24 25 26 26 27 28 28 29 29 30 30 30 30 30
8 8 8 8 9 10 10 10 10 9 10 10 10 10 10 9 10 11 12 14 16 18 19 20 20 20 20 20 20 19 19 18 16 14 12 11 10 10 10 11 12 13 13 14 15 15 16 16 16 15 14 13 13 13 13 13 13 14 14 14 15 16 16 17 18 19 19 20 21 22 23 23 24 25 26 26 27 28 28 29 29 30 30 30 30 30
9 9 9 9 9 9 8 8 8 8 9 9 9 8 8 9 10 12 14 16 18 19 19 20 20 20 19 20 20 20 19 17 15 13 12 10 10 10 11 13 14 15 16 16 16 16 16 15 15 13 12 12 11 11 12 12 12 13 13 14 14 15 16 16 17 18 19 19 20 21 21 22 23 24 24 25 26 26 27 28 28 29 30 30 30 30
9 9 9 9 9 8 8 8 8 8 8 8 8 9 10 11 13 14 15 17 18 19 20 20 20 20 20 20 19 19 17 15 14 12 11 11 11 11 13 15 16 17 17 17 17 15 14 14 13 12 11 11 10 11 11 11 12 12 13 13 14 14 15 15 16 16 17 18 19 19 20 21 22 22 23 24 24 25 26 27 27 28 29 29 29 29
8 8 8 8 8 8 8 8 7 7 8 8 9 11 12 13 14 16 17 18 19 19 19 20 21 21 21 20 18 16 14 13 12 12 12 12 12 12 15 17 18 17 17 17 16 14 12 12 11 11 10 10 10 10 11 11 12 12 13 13 13 14 14 15 15 16 17 18 18 19 20 21 22 22 23 24 24 25 25 26 27 27 28 28 29 28
8 8 8 9 9 9 8 8 8 8 10 11 12 13 13 15 16 17 17 18 19 19 19 20 22 23 22 18 15 13 12 12 12 13 14 14 13 13 16 18 19 18 16 15 14 13 11 11 11 10 10 10 10 10 11 12 12 12 13 13 14 15 15 16 17 17 18 19 20 20 21 22 22 23 24 24 25 25 25 26 27 27 28 28 29 29
9 9 9 10 10 10 9 9 10 11 12 13 14 14 15 16 16 17 17 18 19 19 20 21 23 24 23 19 14 10 10 12 13 15 16 16 15 15 17 18 19 18 15 14 13 12 11 11 11 10 10 10 11 11 12 12 13 13 14 15 15 16 17 18 18 19 20 20 21 21 22 22 23 23 24 24 25 25 25 26 27 27 28 28 29 29
10 10 10 10 10 10 9 10 11 12 13 14 15 16 16 16 17 17 17 18 19 19 20 21 21 21 21 20 15 10 10 12 15 17 18 19 18 16 16 18 18 17 15 14 13 12 12 12 11 11 11 11 12 12 13 14 14 15 15 16 17 17 18 19 19 20 20 21 21 22 22 23 23 23 24 24 24 25 25 26 26 27 27 28 28 29
10 10 9 9 9 9 10 11 12 13 14 15 15 16 16 17 17 17 18 19 20 20 20 20 19 19 18 18 15 12 12 14 17 19 21 22 20 18 17 18 18 17 16 15 14 13 13 12 12 12 12 12 13 13 14 15 15 16 16 17 17 18 19 19 20 20 21 21 22 22 22 23 23 23 24 24 25 25 25 26 26 27 27 28 28 28
11 10 9 9 9 10 11 11 12 13 14 15 16 16 17 17 18 18 19 20 20 20 19 18 17 17 17 18 16 14 14 16 19 21 24 25 23 19 18 19 19 19 18 16 15 14 14 14 13 13 13 14 14 15 15 16 16 17 17 18 18 19 19 19 20 20 21 21 21 22 22 22 23 23 24 24 24 25 25 25 26 26 27 27 28 28
12 12 11 11 11 11 12 13 13 14 15 16 16 17 18 19 19 20 20 20 20 18 17 15 15 16 17 18 18 17 16 18 21 23 25 26 24 21 19 20 20 20 19 18 16 16 16 15 15 15 15 15 16 16 17 17 17 18 18 18 18 19 19 19 19 20 20 20 21 21 21 22 22 23 23 23 24 24 25 25 25 26 26 27 27 27
15 15 15 14 14 14 15 15 16 16 17 17 17 18 19 20 21 21 21 20 18 16 15 15 15 16 18 19 19 18 18 19 21 22 24 26 25 23 20 21 21 21 21 19 18 17 17 17 17 17 17 17 17 17 18 18 18 18 18 18 19 19 19 19 19 19 19 19 19 20 20 21 21 22 22 23 23 24 24 25 25 26 26 27 27 28
16 16 16 16 16 17 17 18 18 18 18 18 19 19 19 20 20 20 20 18 17 16 16 15 16 17 17 18 18 18 19 19 19 20 21 25 26 24 21 22 22 22 22 20 19 19 18 18 18 18 18 18 18 19 19 19 19 18 19 19 19 20 20 20 20 20 19 19 20 20 20 21 21 22 22 22 23 23 24 24 25 25 26 26 26 27
15 15 16 16 16 16 17 17 18 18 18 18 18 19 19 19 19 19 18 17 16 16 16 16 17 17 17 18 19 19 18 17 17 18 19 23 25 25 23 23 23 23 22 21 20 21 21 21 20 20 20 20 20 20 20 20 19 19 19 20 20 21 21 21 21 21 21 21 21 21 21 21 21 21 21 22 22 23 23 23 24 24 24 25 25 26
15 15 15 15 15 16 16 16 16 16 16 17 17 18 18 18 18 17 17 16 15 15 16 17 18 19 19 19 19 19 17 16 17 17 19 22 25 25 23 22 23 24 24 22 22 22 23 23 22 21 21 21 21 21 21 20 20 20 20 21 22 22 22 22 22 21 21 21 21 20 20 20 20 20 20 21 21 22 22 23 23 23 23 24 24 25
15 15 15 15 15 15 15 15 15 15 15 16 16 17 17 17 17 17 16 15 14 15 17 18 20 20 20 20 20 20 18 18 18 18 19 21 24 25 22 21 21 23 24 24 23 24 25 25 24 23 23 23 22 22 22 21 21 21 22 22 23 23 22 22 22 21 21 20 20 19 19 19 19 19 20 20 21 21 22 22 22 23 23 23 24 25
15 15 15 15 15 15 15 14 14 14 14 15 15 16 16 16 16 16 16 15 15 16 17 19 20 21 21 21 21 21 20 20 19 18 18 19 22 23 22 20 20 22 24 25 26 26 27 27 26 25 25 24 23 23 23 23 23 23 24 24 24 23 22 22 21 20 20 19 19 18 18 18 19 19 20 20 21 21 21 22 22 22 23 23 24 25
13 13 14 14 14 13 13 13 13 13 13 14 14 14 15 15 16 16 16 15 15 16 17 19 20 21 22 23 23 22 21 21 19 17 16 17 20 21 21 21 21 23 25 27 28 27 27 28 27 27 26 25 24 25 25 25 26 26 26 25 24 23 22 21 20 19 19 19 18 18 19 19 19 20 20 20 21 21 21 21 21 22 22 23 25 26
11 11 11 11 11 11 11 11 11 12 12 12 12 12 13 13 14 15 14 13 14 16 18 19 20 21 23 23 24 24 23 21 18 15 15 16 19 21 22 22 22 24 25 28 30 30 29 28 27 27 26 26 26 27 28 28 28 28 27 26 24 22 21 20 19 19 19 19 19 19 19 19 19 20 20 20 20 20 20 20 21 21 22 23 24 26
13 12 12 11 11 10 10 10 10 10 10 10 10 10 11 12 12 13 13 13 14 16 18 19 20 21 22 23 24 24 23 20 16 15 15 16 18 21 22 23 23 24 25 27 29 31 31 29 27 26 26 27 28 29 30 30 30 30 28 27 25 23 21 20 20 19 19 19 19 19 19 19 19 20 20 20 20 20 20 20 20 20 21 22 24 25
13 13 12 11 11 11 10 10 10 9 9 9 9 9 10 11 11 12 13 14 15 16 18 19 19 20 20 21 21 23 24 20 17 16 17 17 19 22 23 24 24 24 24 24 25 27 30 30 29 27 28 29 30 31 31 31 31 30 29 28 26 24 22 22 21 20 20 20 19 19 19 20 20 19 19 19 19 19 19 18 18 19 20 22 23 25
12 11 11 10 10 10 10 9 9 8 8 8 8 9 9 10 11 12 13 14 15 16 17 18 18 18 19 19 20 22 24 21 19 18 18 19 21 23 23 24 24 24 23 23 23 23 25 29 31 31 31 32 32 32 31 31 31 31 30 29 28 26 24 23 22 22 21 20 20 20 20 20 20 19 19 19 19 19 18 18 17 18 19 21 23 24
11 10 10 9 9 9 9 9 8 8 8 8 9 9 10 11 12 13 14 14 15 16 16 17 18 18 19 20 21 22 23 22 20 19 19 20 21 23 23 24 25 25 25 24 24 25 26 30 33 35 34 33 33 33 32 32 31 31 30 29 28 27 26 24 24 23 22 21 21 20 20 20 20 19 19 19 19 19 18 18 17 17 18 20 22 24
11 10 9 9 9 8 8 8 8 8 8 9 9 10 11 12 13 13 14 14 15 15 16 17 18 19 20 21 22 23 23 21 20 19 19 20 21 23 24 25 26 26 26 26 26 27 28 30 32 34 35 35 34 33 32 31 31 30 29 29 28 28 27 26 25 24 23 22 21 21 21 20 20 20 20 20 20 19 19 18 18 17 17 19 21 23
11 11 10 9 9 8 8 8 8 8 9 9 10 11 12 12 13 14 14 15 15 16 16 17 18 19 20 21 22 23 23 21 19 19 19 20 22 23 24 25 25 25 26 26 27 28 29 30 30 32 33 36 35 33 32 31 30 29 29 28 28 28 27 26 25 25 24 23 22 22 22 21 22 22 22 21 21 20 20 19 18 18 17 18 20 21
11 11 10 9 9 9 9 8 9 9 9 10 11 12 12 13 14 15 16 16 17 17 17 18 18 19 20 21 22 23 22 21 19 19 19 20 21 22 23 24 24 24 25 26 27 28 29 30 31 31 32 34 35 35 33 30 29 29 29 29 28 28 28 27 26 25 25 24 24 23 23 23 23 23 23 22 22 21 20 19 19 18 17 17 18 19
11 11 10 10 9 9 9 9 9 10 10 11 12 12 13 14 15 16 17 17 18 18 18 19 19 20 21 21 22 22 21 20 19 19 18 19 19 21 22 23 23 23 24 24 25 27 28 30 31 31 32 33 34 34 34 32 30 30 30 29 29 29 29 27 26 26 25 25 25 24 24 24 25 25 24 23 22 21 20 19 19 18 18 19 19 20
11 11 10 10 9 9 9 10 10 10 11 12 13 14 14 15 16 16 17 17 18 18 19 19 20 21 21 21 21 21 21 20 19 18 18 18 19 20 21 22 23 23 23 23 24 25 26 28 30 31 32 32 33 33 33 33 32 32 31 31 30 30 30 29 28 27 26 26 26 25 25 25 25 25 25 24 23 23 22 21 21 20 21 22 23 23
11 11 10 10 10 10 10 10 11 11 12 13 14 14 14 15 16 16 17 17 18 19 19 20 21 21 21 21 21 21 21 20 19 19 18 18 18 19 20 21 22 22 22 22 22 23 25 26 28 30 31 33 33 33 32 32 33 34 34 33 33 32 31 30 29 28 27 27 27 26 26 26 26 26 26 25 25 25 25 25 24 24 24 25 26 26
11 11 10 10 10 10 10 11 12 12 13 13 14 14 15 15 16 17 18 18 19 19 20 20 21 22 22 22 22 21 21 20 20 19 19 18 18 18 19 20 21 21 21 22 22 23 24 25 27 29 30 31 33 33 34 34 34 34 34 35 36 35 32 31 30 29 28 27 27 28 28 27 27 27 27 27 27 27 27 27 27 27 26 27 28 28
11 10 10 10 10 10 11 12 12 13 13 14 14 15 15 16 17 18 18 19 19 20 20 20 21 21 22 22 22 21 21 20 20 19 18 18 17 17 18 19 19 20 21 21 22 23 23 24 26 28 29 30 32 33 34 35 34 34 34 35 36 36 35 33 31 30 29 28 28 28 29 29 29 28 28 28 28 28 28 28 29 29 28 28 28 28
10 10 10 10 10 11 11 12 12 13 14 14 15 15 16 16 17 18 19 19 19 19 19 19 20 21 21 21 21 21 20 20 19 18 17 17 16 16 17 17 18 19 19 20 22 23 23 24 25 27 29 30 31 33 35 36 35 34 34 35 36 37 37 35 32 30 30 30 29 29 29 29 29 29 30 30 30 30 29 30 30 30 30 29 29 29
10 10 10 10 11 11 12 12 13 14 14 14 15 15 16 17 18 19 19 19 19 19 19 19 20 20 21 22 22 21 20 19 18 17 17 16 15 15 16 16 17 18 18 19 21 23 23 24 26 27 28 29 31 33 35 36 37 36 35 35 36 37 37 36 33 31 31 30 30 29 29 30 30 30 31 31 32 32 32 32 31 31 31 31 31 31
10 10 10 11 12 12 13 13 14 14 14 14 15 16 17 17 18 18 19 19 18 18 18 18 19 20 21 21 21 21 20 19 18 17 16 16 15 15 15 15 16 16 17 18 20 22 24 25 26 27 28 29 31 33 35 36 37 37 37 35 35 35 36 36 34 33 32 31 31 30 30 30 31 31 32 33 33 33 33 33 33 33 32 32 32 32
10 11 11 12 12 13 14 14 14 14 14 15 16 16 17 17 17 17 17 18 18 18 18 18 19 19 20 20 20 20 20 19 18 17 17 16 15 15 15 15 15 16 16 17 19 20 23 25 27 27 28 29 31 33 35 36 37 38 37 36 35 35 35 34 34 33 33 33 32 31 31 30 31 32 33 34 35 35 34 34 34 34 33 33 33 33
10 11 11 12 12 13 13 13 14 14 15 16 16 16 16 16 16 16 17 17 17 17 17 17 18 19 20 20 19 19 19 19 19 18 17 17 16 16 15 15 15 16 16 17 19 20 21 24 25 27 28 29 32 33 35 35 36 37 37 35 34 34 34 33 33 32 32 33 33 32 32 31 32 33 34 35 36 36 36 35 34 34 34 34 33 33
10 11 11 12 12 13 13 14 15 15 15 16 16 16 16 16 16 16 16 16 16 16 16 17 17 18 18 19 19 19 19 20 20 19 19 18 18 18 17 17 17 18 18 19 20 21 22 23 24 26 27 30 32 34 34 34 34 35 35 34 34 34 34 34 33 33 32 33 33 33 32 32 32 33 34 35 36 37 36 35 34 34 33 33 33 32
10 11 11 12 12 13 13 14 15 15 15 16 16 15 15 15 15 16 15 15 15 16 16 16 17 17 18 18 18 19 20 20 21 21 21 20 20 20 20 20 20 21 21 22 22 23 24 25 25 26 26 28 31 33 34 33 32 32 32 32 32 33 34 34 34 33 33 33 33 33 32 32 32 33 34 36 36 37 36 36 35 34 32 32 31 31
10 10 11 11 12 13 13 14 15 15 15 15 15 15 15 15 15 15 15 15 15 15 16 16 17 18 19 19 19 20 20 21 22 22 22 22 22 22 22 22 23 23 24 24 25 26 27 28 28 27 26 26 28 30 31 32 31 30 30 30 31 32 34 34 34 34 33 33 33 33 32 32 32 32 34 36 37 38 38 37 36 34 32 30 30 29
10 10 11 12 13 13 14 14 15 15 15 15 15 15 15 15 14 14 14 14 15 15 16 17 18 19 20 20 21 21 22 23 24 24 24 24 24 24 24 25 25 26 26 26 27 28 28 29 29 28 27 25 25 26 28 29 29 29 29 30 31 32 33 34 34 34 33 33 33 33 32 32 32 33 34 36 37 38 39 38 36 34 32 30 29 29
10 10 11 12 13 14 14 14 15 15 15 16 16 15 15 15 15 14 15 15 16 16 17 18 19 20 21 22 22 23 23 24 25 26 25 25 25 25 25 25 25 25 26 27 28 28 28 29 29 29 28 25 22 21 23 25 27 28 30 31 31 31 31 32 32 32 32 32 32 32 32 33 33 34 35 36 36 36 36 36 35 33 32 30 29 30
Wind_Direction
248 249 251 252 252 253 255 258 260 261 264 266 268 269 272 274 277 280 282 285 287 289 291 292 294 295 295 295 294 294 293 293 292 292 292 291 291 291 291 291 292 292 293 293 293 294 293 293 293 293 292 291 291 290 290 289 289 288 287 287 286 285 284 284 283 282 280 279 278 275 273 273 273 272 271 270 270 271 272 273 272 272 272 272 272 272
244 246 247 250 251 252 255 260 263 264 266 269 272 275 278 281 284 286 289 291 292 293 294 294 295 295 295 295 295 295 295 295 295 295 294 294 293 293 293 293 293 294 294 294 294 294 294 294 293 292 292 292 291 291 291 290 290 289 288 287 286 285 285 284 284 283 282 281 281 279 277 275 274 273 273 272 272 272 274 275 274 274 274 273 273 273
241 241 243 246 249 251 255 260 264 266 268 271 275 279 283 287 289 291 292 293 294 294 294 295 295 296 296 297 298 298 299 299 299 298 298 297 297 296 296 295 295 295 295 294 294 294 294 293 293 293 292 292 292 292 291 291 290 289 288 287 287 286 286 285 285 284 283 283 283 282 280 279 278 276 275 274 273 273 274 275 275 275 275 274 274 274
240 239 242 246 249 252 256 260 264 268 271 276 280 284 288 290 291 292 293 293 295 295 296 297 298 299 300 301 302 303 303 303 303 303 302 302 301 301 300 299 298 297 296 295 295 294 294 293 293 293 293 293 292 292 291 290 290 289 288 287 287 286 286 285 284 284 284 283 283 282 282 281 280 279 277 276 274 274 274 275 275 276 276 276 276 276
240 240 243 247 252 256 260 264 270 275 281 286 289 291 292 293 293 294 294 296 297 299 300 301 302 303 305 306 306 307 307 307 308 308 308 307 306 305 304 304 302 300 298 297 295 294 294 294 293 293 293 292 292 291 290 289 289 288 288 287 286 286 285 284 284 283 284 283 283 283 283 282 282 281 280 278 277 277 277 277 278 278 279 279 278 278
242 243 248 253 258 264 270 276 282 287 292 294 295 295 294 294 294 295 297 298 300 302 303 304 306 307 309 309 310 311 311 312 313 312 311 309 307 306 305 303 302 299 297 296 294 293 293 293 293 292 292 291 290 289 288 287 287 286 286 285 285 284 284 283 283 283 283 284 284 284 283 283 283 283 283 283 282 282 282 281 281 281 281 280 279 279
245 249 255 261 268 275 282 286 290 293 294 294 294 293 292 293 294 296 299 301 303 305 306 307 309 310 312 312 313 314 315 315 314 313 310 307 305 304 302 299 297 295 293 292 292 292 292 292 293 293 292 291 290 289 287 286 285 285 284 283 283 282 282 281 282 282 283 284 284 285 285 285 285 286 286 286 286 286 285 284 283 282 280 279 278 277
249 256 262 268 275 282 287 289 289 289 289 289 289 291 292 294 296 298 301 303 304 306 307 309 311 313 314 315 315 315 316 315 314 311 308 305 303 300 298 295 293 292 292 292 293 294 295 297 298 298 297 296 294 291 288 287 285 283 282 281 280 280 280 281 282 283 284 285 285 286 286 287 287 288 288 287 287 286 285 283 282 280 279 277 276 275
258 265 270 273 277 281 285 285 285 285 285 286 288 290 294 296 299 300 300 302 303 306 308 311 313 314 314 314 314 314 314 313 312 309 306 303 300 298 297 296 296 297 297 298 300 301 302 304 304 303 301 298 294 291 287 284 282 280 279 279 280 281 282 283 284 285 286 286 286 286 287 287 287 287 286 286 285 284 282 281 279 278 277 276 275 274
272 274 275 276 276 278 279 281 282 283 285 288 291 293 296 298 300 301 302 303 305 308 310 312 312 312 311 311 311 312 312 311 309 306 303 300 298 298 298 300 303 305 306 306 307 307 307 306 305 302 299 295 291 287 284 282 280 280 280 281 283 284 285 286 286 287 287 286 286 286 286 286 285 285 284 283 281 280 279 278 277 277 276 275 275 275
281 280 277 272 273 276 277 279 280 283 287 291 294 296 298 299 301 304 306 307 308 308 308 308 308 308 307 308 310 312 312 310 307 303 299 296 295 297 300 304 307 309 309 309 308 308 307 305 303 300 297 294 290 287 285 283 283 283 284 286 287 288 288 288 288 287 287 286 286 285 284 284 283 282 281 280 279 278 278 277 276 276 276 275 275 275
280 280 277 274 275 276 278 280 282 285 288 290 293 295 300 301 302 303 303 303 304 304 304 304 304 304 305 307 311 313 313 310 306 302 298 296 298 302 306 308 309 310 310 309 308 307 306 305 303 301 298 295 292 289 288 287 287 287 288 289 290 290 290 290 289 289 288 287 286 285 285 284 283 282 281 280 279 279 278 278 278 277 277 277 276 275
275 275 276 276 276 276 277 277 279 281 284 285 287 288 289 289 293 296 296 297 299 300 300 300 300 301 304 308 311 313 312 309 306 304 302 303 308 312 312 310 311 312 312 310 309 308 308 306 304 302 299 297 294 292 290 289 290 290 291 292 293 293 294 293 292 291 290 289 288 287 287 286 285 284 283 283 282 282 281 280 280 280 279 278 278 277
272 273 274 274 273 273 274 276 278 279 279 278 277 277 278 280 283 287 289 291 292 294 296 296 296 299 303 308 311 311 310 309 308 308 308 311 315 316 312 309 311 314 314 311 310 310 310 308 305 302 298 296 294 293 292 291 292 293 295 296 297 298 298 297 296 294 292 292 291 290 290 289 289 288 288 287 287 286 285 284 283 282 282 281 280 279
269 269 269 266 266 269 274 277 278 274 268 264 265 270 275 277 279 282 285 286 287 289 292 293 295 298 302 307 310 311 311 311 311 311 311 313 316 316 312 310 311 313 313 311 311 312 311 309 306 302 297 294 294 294 295 296 298 299 301 302 303 304 303 301 300 298 296 295 295 294 294 293 293 292 292 291 290 289 288 287 285 284 283 283 282 281
265 263 261 262 264 268 271 270 265 260 257 258 262 265 270 272 276 280 282 283 284 286 290 294 297 300 303 308 312 314 313 312 311 310 311 314 318 319 315 313 313 313 313 312 313 313 312 308 304 301 298 296 296 298 301 304 306 308 309 310 310 310 308 306 304 302 300 299 297 296 295 294 293 292 291 290 290 289 288 287 286 285 284 283 283 282
260 259 261 265 267 267 266 261 255 253 255 259 263 267 270 273 276 278 279 281 283 287 291 296 299 302 305 310 315 317 314 311 310 311 313 316 320 322 320 317 316 315 315 314 315 315 314 310 306 303 301 301 303 306 310 313 315 316 317 316 315 312 310 307 304 302 300 298 296 294 292 291 289 288 288 287 287 286 286 285 285 285 285 284 283 283
259 261 265 268 270 268 263 257 254 255 259 261 265 267 270 272 274 276 278 280 283 288 293 297 299 302 305 309 316 322 315 311 312 314 316 317 321 324 324 321 318 317 315 316 317 318 317 313 310 308 307 308 311 314 317 319 320 320 319 318 315 312 308 305 302 299 297 295 293 291 289 288 287 286 285 285 284 284 284 284 284 284 284 284 284 283
259 263 266 268 270 269 265 260 259 259 261 263 266 268 270 271 273 275 277 280 284 289 293 296 298 301 303 306 312 319 316 314 314 316 317 318 321 325 327 324 321 318 317 318 320 321 319 316 313 312 312 314 316 318 320 321 321 321 319 316 313 310 306 303 300 298 295 293 291 289 287 286 285 284 284 283 283 283 283 283 283 283 284 284 284 284
260 260 258 260 263 264 263 263 263 263 262 265 269 272 272 274 276 277 279 283 287 290 293 296 299 301 302 303 308 313 316 315 314 315 316 317 320 324 328 326 323 320 318 319 322 323 321 318 316 315 316 316 318 319 320 321 321 320 318 315 312 309 306 303 300 297 294 292 289 287 286 284 283 282 282 282 282 282 283 283 283 283 283 283 283 283
262 259 257 257 256 256 257 260 261 260 263 267 272 275 277 280 282 283 285 288 289 291 293 295 296 297 297 296 299 306 314 312 311 312 314 315 317 322 327 325 321 318 317 320 323 324 321 319 318 317 317 317 318 318 319 319 319 318 316 314 312 310 307 304 301 298 295 292 289 287 285 283 282 282 281 282 282 283 283 283 283 283 283 282 282 282
262 261 259 257 255 255 256 258 260 262 267 270 273 276 280 283 285 288 290 291 291 289 287 287 287 286 286 288 295 305 313 311 310 311 312 310 313 320 326 323 320 317 316 320 323 323 321 318 317 316 316 316 316 316 317 317 316 315 314 313 312 311 309 308 305 302 299 295 292 289 286 285 284 283 283 284 284 284 284 285 284 284 283 282 281 281
261 261 260 257 256 256 257 259 263 267 271 273 276 279 282 284 286 287 288 289 288 286 283 281 280 280 283 288 297 307 312 311 311 311 309 305 309 317 322 320 317 315 315 319 321 319 317 315 315 314 314 314 314 315 316 315 314 312 311 311 311 312 312 312 310 308 305 301 297 293 290 288 286 285 285 285 285 285 285 285 285 284 283 283 282 281
264 265 264 264 264 264 265 266 268 271 274 276 278 280 282 284 285 285 286 285 285 284 285 286 286 287 290 294 300 306 311 313 313 311 306 303 306 312 317 316 314 312 313 317 318 316 314 313 313 313 313 313 314 315 315 313 312 310 309 310 311 313 314 314 313 311 307 303 299 295 291 288 286 285 285 285 285 285 286 286 286 286 285 284 283 282
271 272 273 274 275 275 274 274 275 275 277 278 280 281 283 285 286 286 286 286 286 288 291 291 291 293 299 304 307 311 316 316 313 309 304 302 304 308 312 313 310 309 311 314 315 313 312 311 311 312 313 314 315 315 314 312 310 309 309 311 313 314 315 314 312 309 305 301 297 294 291 288 286 286 286 286 287 288 288 289 289 288 288 286 285 283
270 273 275 277 278 278 277 277 277 277 278 279 281 283 285 286 287 287 288 288 289 290 290 290 292 298 305 309 311 313 315 314 311 307 304 301 301 303 308 311 309 308 309 311 313 312 311 311 312 313 314 315 315 314 313 311 311 311 312 314 315 316 315 312 309 306 303 299 296 293 291 289 288 288 288 289 290 291 291 291 291 290 289 288 287 285
263 267 271 273 275 275 276 276 276 276 276 276 277 279 281 282 283 283 283 286 288 290 290 291 295 301 306 307 308 310 311 310 310 309 307 302 299 300 306 310 310 309 309 310 311 312 311 311 312 313 314 315 315 314 313 313 313 314 315 317 317 316 314 311 308 305 302 299 297 295 293 292 292 292 292 292 293 293 293 292 292 292 291 291 288 285
264 268 271 272 272 273 273 273 274 274 273 273 272 272 272 272 273 275 278 285 290 290 290 292 295 299 302 303 305 307 307 308 312 315 312 305 299 300 306 311 311 309 308 309 311 311 310 310 311 313 314 315 315 315 315 315 316 317 318 319 318 317 315 311 308 306 304 302 300 299 297 297 296 295 295 295 294 294 294 293 293 293 292 290 287 285
284 285 283 280 276 273 271 270 270 270 270 270 269 267 267 267 269 274 283 290 291 289 289 292 294 296 298 301 303 305 306 311 318 321 315 307 302 302 307 309 309 307 306 306 308 309 308 309 311 313 314 315 315 316 316 317 317 318 319 320 320 318 316 314 311 309 307 305 304 302 301 300 299 298 298 297 296 295 294 294 293 291 289 287 285 284
295 294 291 287 282 278 274 271 268 267 266 266 266 267 268 272 276 283 289 292 289 288 288 291 293 294 296 299 301 303 305 314 320 319 312 304 299 300 303 303 302 302 302 303 305 307 308 310 312 313 313 314 314 315 315 316 317 319 320 321 321 321 320 318 316 313 311 309 308 307 305 304 303 302 301 299 298 296 295 294 293 291 289 287 286 285
290 287 284 283 281 279 277 274 272 268 266 265 266 269 272 277 282 285 288 287 287 287 288 290 292 294 295 295 295 296 300 310 315 312 307 299 295 296 298 297 298 299 300 301 303 305 307 309 312 313 312 312 312 313 315 316 318 321 322 323 323 322 322 321 319 317 315 313 312 310 309 308 306 305 304 302 300 298 296 295 294 293 291 289 288 287
285 281 278 279 279 279 280 279 278 277 274 273 273 274 276 278 280 282 283 284 286 287 289 291 294 296 296 294 291 292 299 307 312 310 306 300 297 298 299 298 299 300 302 302 300 299 299 303 307 311 312 312 313 314 316 317 319 321 322 322 322 322 323 323 321 319 318 316 315 313 312 311 310 308 307 305 304 302 300 298 297 296 294 292 290 290
287 285 285 285 285 285 286 286 285 284 282 280 279 278 277 277 278 280 282 284 287 290 293 294 296 298 298 297 295 297 302 308 311 312 308 303 300 300 300 300 300 301 303 302 299 296 294 297 303 308 310 312 313 314 315 317 319 320 320 320 320 321 323 323 322 321 320 319 317 315 314 313 312 311 310 309 308 307 305 303 301 300 297 294 293 292
296 296 296 296 295 293 291 288 286 284 283 281 280 280 279 279 281 282 285 288 291 293 295 296 297 298 298 298 299 301 305 309 312 312 308 302 299 298 299 299 299 300 301 300 299 297 296 297 300 303 306 309 311 312 313 316 318 319 319 319 319 320 322 323 323 322 322 320 319 318 317 316 316 315 315 314 313 312 310 308 306 303 300 294 291 290
300 300 301 300 298 294 290 287 283 282 281 282 283 283 284 286 288 290 293 295 296 297 297 297 297 297 298 297 298 301 306 310 311 309 305 300 297 296 297 297 297 298 298 298 297 297 296 297 298 300 302 305 307 310 312 315 316 317 318 318 319 320 321 323 324 324 323 322 321 320 320 320 320 319 319 319 318 317 315 313 309 305 300 294 289 286
299 299 299 298 295 291 287 283 280 280 282 283 284 286 288 290 293 295 296 298 299 299 300 300 299 299 298 298 298 300 305 309 309 307 303 299 297 296 295 295 296 296 295 295 296 296 296 297 298 299 299 301 304 308 312 314 315 316 317 318 319 320 322 324 325 325 324 323 323 323 323 323 323 322 322 322 321 319 317 314 312 309 305 301 296 291
297 297 296 294 290 287 284 281 279 281 284 285 285 285 287 290 292 294 296 297 298 299 299 299 299 299 299 299 298 300 303 305 305 303 301 299 297 295 293 293 294 293 293 294 295 295 296 298 299 299 299 299 301 305 310 313 315 317 318 320 320 321 323 325 326 325 324 324 324 324 324 325 324 323 323 322 321 319 317 315 314 313 313 311 309 304
294 293 292 289 286 283 282 281 281 283 284 285 285 286 287 290 292 293 295 296 297 297 297 297 297 297 297 297 297 298 299 300 300 299 299 297 296 294 293 293 292 292 291 292 294 295 296 296 296 297 298 300 301 304 309 312 315 318 320 321 321 321 322 324 325 325 324 323 324 324 324 325 324 323 323 323 322 320 318 318 318 319 319 318 315 311
291 290 288 286 284 282 281 282 282 283 284 285 287 289 291 293 294 295 296 296 296 296 296 296 296 296 296 296 296 296 297 297 298 298 298 297 296 294 293 293 292 292 292 292 292 293 293 293 294 295 296 299 302 306 309 312 314 316 319 321 321 321 322 322 322 322 322 322 323 323 324 324 324 324 323 323 322 321 320 320 320 320 319 317 314 312
288 287 286 285 283 282 282 282 283 284 286 288 292 294 296 297 297 296 296 296 296 297 297 297 298 298 298 298 298 298 299 299 300 300 299 298 297 294 293 292 292 292 292 291 291 291 292 293 293 295 296 299 301 305 309 311 313 315 316 316 316 318 321 321 320 320 321 322 322 323 324 324 324 324 324 323 322 321 320 319 319 319 318 314 311 310
286 286 286 284 283 282 283 284 286 288 291 294 297 298 299 300 299 299 298 298 299 300 301 301 301 300 299 300 300 301 302 303 303 303 302 300 298 295 293 291 291 291 291 291 291 291 292 293 295 296 298 300 302 304 306 308 311 312 311 309 311 314 318 319 319 319 320 321 321 322 322 323 324 324 323 322 320 320 320 318 317 317 316 314 311 308
285 285 286 284 283 284 286 288 291 293 296 298 300 301 301 301 301 300 300 301 303 304 304 304 304 303 302 301 301 303 305 306 307 306 304 302 300 297 294 292 291 291 292 292 292 293 293 295 296 297 298 300 301 302 303 306 309 309 307 307 309 313 315 316 317 318 318 318 319 321 322 323 323 323 322 320 319 319 320 319 317 315 314 313 312 310
285 285 285 284 286 289 291 294 295 296 297 299 300 301 302 302 302 303 303 304 305 306 307 307 307 307 307 307 307 308 310 311 311 310 308 307 304 301 298 295 293 293 294 295 295 295 298 299 298 297 299 301 301 299 299 302 305 307 306 307 307 307 306 310 315 317 316 317 318 320 321 322 323 322 320 319 318 319 319 318 316 314 313 313 312 311
285 286 287 288 291 293 296 297 298 299 300 302 303 303 303 303 303 304 305 306 308 309 310 311 311 311 312 313 314 315 317 316 316 316 315 314 311 308 304 301 298 297 297 296 296 297 300 300 299 300 302 302 299 297 297 299 301 303 305 307 306 303 300 305 311 314 316 317 319 320 322 323 322 321 319 317 317 317 317 316 315 314 314 313 312 310
287 289 291 293 295 297 298 299 301 303 304 305 305 304 304 304 305 306 308 309 310 312 313 315 316 315 314 316 319 321 321 321 321 321 321 319 317 314 311 307 305 303 301 299 299 299 299 298 299 302 303 301 297 294 293 295 297 300 302 305 305 303 303 306 309 310 312 315 318 320 322 323 321 318 316 315 315 315 314 313 312 312 312 312 311 309
290 293 296 298 300 302 303 305 306 307 307 307 306 305 305 306 308 309 311 312 313 315 316 317 317 316 315 318 321 324 324 324 324 324 324 323 322 320 317 314 311 309 307 305 304 303 300 299 300 302 301 298 295 293 292 293 294 297 300 303 304 304 304 306 308 309 311 313 315 318 321 322 320 316 312 312 312 312 311 311 310 309 309 309 308 307
297 300 302 303 305 307 308 309 309 308 307 306 307 307 309 310 312 313 314 315 316 317 318 318 318 317 316 319 322 324 324 325 326 327 327 327 325 324 322 320 318 316 315 312 310 307 304 303 303 301 298 294 292 293 295 295 295 296 298 302 303 303 303 305 308 311 312 313 314 317 320 319 316 312 310 309 309 308 307 306 306 306 305 305 305 304
303 305 306 307 308 309 308 308 307 307 306 307 308 310 312 314 315 317 317 317 317 318 318 318 319 318 318 320 323 324 324 324 325 327 326 327 327 325 324 323 322 321 320 318 315 312 309 307 305 302 298 293 291 292 296 298 298 298 299 301 302 302 302 305 308 311 312 312 313 315 316 313 310 308 307 306 304 303 302 302 303 303 303 304 303 303
307 308 309 310 310 309 308 307 307 307 308 309 311 313 315 316 318 318 318 318 318 317 318 320 320 318 319 321 323 325 325 325 325 325 325 326 326 326 325 325 325 324 323 320 317 315 314 311 308 305 301 296 293 294 297 300 301 301 301 301 301 300 301 304 307 309 309 309 310 311 310 308 306 304 303 302 300 299 300 301 302 303 304 305 305 304
311 312 312 312 311 310 309 309 310 312 313 315 316 317 318 318 319 319 319 318 318 318 320 321 321 320 319 321 323 324 324 323 323 323 324 324 325 325 325 325 326 325 323 320 317 315 313 311 309 307 304 299 296 294 296 299 302 303 302 300 300 300 300 301 304 306 306 305 305 305 305 303 302 300 299 297 297 297 299 300 301 303 305 306 306 306
313 314 313 313 313 312 313 314 316 317 318 319 319 320 321 321 321 321 320 320 320 321 322 323 323 321 319 320 321 322 322 321 321 321 323 323 323 323 323 324 324 321 318 315 314 312 310 308 307 306 305 303 300 296 294 296 299 300 299 299 299 299 298 298 299 301 301 300 300 300 299 298 297 296 296 295 295 296 297 298 300 302 304 306 306 306